TimeEDT,TemperatureF,Dew PointF,Humidity,Sea Level PressureIn,VisibilityMPH,Wind Direction,Wind SpeedMPH,Gust SpeedMPH,PrecipitationIn,Events,Conditions,WindDirDegrees,DateUTC
12:53 AM,64.9,59.0,81,29.88,10.0,East,6.9,-,N/A,,Clear,90,2013-09-25 04:53:00
1:53 AM,64.0,59.0,84,29.87,10.0,ENE,5.8,-,N/A,,Mostly Cloudy,70,2013-09-25 05:53:00
2:53 AM,64.0,59.0,84,29.86,10.0,Calm,Calm,-,N/A,,Mostly Cloudy,0,2013-09-25 06:53:00
3:53 AM,63.0,59.0,87,29.86,10.0,East,4.6,-,N/A,,Overcast,80,2013-09-25 07:53:00
4:53 AM,62.1,59.0,90,29.84,10.0,East,5.8,-,N/A,,Clear,90,2013-09-25 08:53:00
5:53 AM,62.1,59.0,90,29.85,10.0,ENE,3.5,-,N/A,,Clear,60,2013-09-25 09:53:00
6:53 AM,61.0,57.9,90,29.86,10.0,North,3.5,-,N/A,,Scattered Clouds,350,2013-09-25 10:53:00
7:53 AM,60.1,57.9,93,29.87,9.0,Calm,Calm,-,N/A,,Mostly Cloudy,0,2013-09-25 11:53:00
8:53 AM,63.0,59.0,87,29.88,10.0,Calm,Calm,-,N/A,,Overcast,0,2013-09-25 12:53:00
9:53 AM,64.0,59.0,84,29.88,10.0,ENE,4.6,-,N/A,,Overcast,60,2013-09-25 13:53:00
10:53 AM,66.9,60.1,79,29.88,10.0,ENE,3.5,-,N/A,,Overcast,60,2013-09-25 14:53:00
11:53 AM,69.1,60.1,73,29.89,10.0,NE,4.6,-,N/A,,Overcast,40,2013-09-25 15:53:00
12:53 PM,73.0,61.0,66,29.88,10.0,ENE,6.9,-,N/A,,Overcast,60,2013-09-25 16:53:00
1:53 PM,75.0,60.1,60,29.87,10.0,ENE,8.1,-,N/A,,Scattered Clouds,70,2013-09-25 17:53:00
2:53 PM,78.1,61.0,56,29.84,10.0,ENE,8.1,-,N/A,,Clear,60,2013-09-25 18:53:00
3:53 PM,75.9,59.0,56,29.84,10.0,NE,6.9,-,N/A,,Partly Cloudy,50,2013-09-25 19:53:00
4:53 PM,78.1,59.0,52,29.85,10.0,North,5.8,-,N/A,,Mostly Cloudy,10,2013-09-25 20:53:00
5:53 PM,73.9,57.9,57,29.86,10.0,NNE,5.8,-,N/A,,Partly Cloudy,30,2013-09-25 21:53:00
6:53 PM,73.9,59.0,59,29.85,10.0,NE,4.6,-,N/A,,Clear,40,2013-09-25 22:53:00
7:53 PM,66.9,60.1,79,29.86,10.0,Calm,Calm,-,N/A,,Clear,0,2013-09-25 23:53:00
8:53 PM,64.0,59.0,84,29.87,10.0,Calm,Calm,-,N/A,,Clear,0,2013-09-26 00:53:00
9:53 PM,66.9,57.9,73,29.89,10.0,NNE,5.8,-,N/A,,Clear,30,2013-09-26 01:53:00
10:53 PM,61.0,57.0,87,29.90,10.0,Calm,Calm,-,N/A,,Clear,0,2013-09-26 02:53:00
11:53 PM,63.0,55.0,75,29.91,10.0,NE,6.9,-,N/A,,Clear,50,2013-09-26 03:53:00